Location: Unspecified
(56.5167°N, 0.0000°E)
Time: 19:27:25
(UTC+02:00)

Resurs 1-4 Rocket - Pass Details

Date: 22 January 2018
Orbit: 799 x 815 km, 98.5° (Epoch: 19 May)

Event Time Altitude Azimuth Distance (km) Brightness Sun altitude
Rises 05:04:04 0° 13° (NNE) 3,335 5.6 -33.7°
Reaches altitude 10° 05:06:44 10° 1° (N) 2,402 4.7 -33.4°
Enters shadow 05:07:03 11° 359° (N) 2,304 4.6 -33.3°
